Location: Aubrey
(33.1990°N, 85.1361°W)
Time: 20:43:51
(UTC+00:00)

Envisat - Pass Details

Date: 26 September 2021
Orbit: 764 x 766 km, 98.2° (Epoch: 15 October)

Event Time Altitude Azimuth Distance (km) Brightness Sun altitude
Rises 10:03:58 0° 24° (NNE) 3,233 6.7 -19.1°
Reaches altitude 10° 10:06:31 10° 34° (NE) 2,303 6.1 -18.5°
Maximum altitude 10:11:01 32° 97° (E) 1,297 4.9 -17.6°
Drops below altitude 10° 10:15:30 10° 160° (SSE) 2,290 5.6 -16.7°
Sets 10:18:01 0° 170° (S) 3,212 6.2 -16.2°
